Location: Katowice
(50.2611°N, 19.0242°E)
Time: 03:37:52
(UTC+02:00)

Explorer 7 - Pass Details

Date: 03 September 2019
Orbit: 485 x 680 km, 50.3° (Epoch: 19 September)

Event Time Altitude Azimuth Distance (km) Brightness Sun altitude
Rises 05:46:33 0° 216° (SW) 3,010 10.1 -3.0°
Reaches altitude 10° 05:49:05 10° 207° (SSW) 2,108 9.4 -2.7°
Maximum altitude 05:53:23 31° 145° (SE) 1,176 8.8 -2.0°
Drops below altitude 10° 05:57:41 10° 84° (E) 2,106 11.9 -1.3°
Sets 06:00:14 0° 74° (ENE) 3,007 14.3 -0.9°
